Location: Camaret
(48.2753°N, 4.5961°W)
Time: 04:35:00
(UTC+00:00)

CZ-4B R/B - Pass Details

Date: 29 October 2020
Orbit: 388 x 461 km, 97.6° (Epoch: 01 December)

Event Time Altitude Azimuth Distance (km) Brightness Sun altitude
Rises 18:39:39 0° 4° (N) 2,396 5.0 -16.5°
Reaches altitude 10° 18:41:51 10° 353° (N) 1,510 4.1 -16.8°
Maximum altitude 18:44:40 29° 291° (WNW) 798 3.3 -17.3°
Drops below altitude 10° 18:47:25 10° 230° (SW) 1,465 4.7 -17.8°
Sets 18:49:30 0° 218° (SW) 2,307 5.6 -18.1°
